Location: ???????
(55.4362°N, 38.1183°E)
Time: 12:16:16
(UTC+00:00)

Cosmos 2219 Rocket - Pass Details

Date: 30 October 2021
Orbit: 826 x 848 km, 71.0° (Epoch: 01 December)

Event Time Altitude Azimuth Distance (km) Brightness Sun altitude
Rises 14:53:48 0° 164° (SSE) 3,360 5.3 -9.0°
Reaches altitude 10° 14:56:45 10° 148° (SSE) 2,434 4.4 -9.5°
Maximum altitude 15:00:48 21° 102° (ESE) 1,791 3.4 -10.0°
Enters shadow 15:04:40 11° 56° (ENE) 2,395 4.0 -10.6°
